This is the latest recevied weather packets stored in our database for station/object BM1CKC-10. If no packets are shown the sender has not sent any weather packets the latest 10 day(s).
| Time | Temp. | Humidity | Pressure | Rain* | Wind** | Luminosity | Snow |
|---|---|---|---|---|---|---|---|
| 1777595398 | 26.67° C | 54% | 1011.5 hPa | - | - | - | - |
| 1777594198 | 26.11° C | 56% | 1011.4 hPa | - | - | - | - |
| 1777592998 | 25° C | 62% | 1011.3 hPa | - | - | - | - |
| 1777591798 | 24.44° C | 63% | 1011.2 hPa | - | - | - | - |
| 1777590598 | 25° C | 63% | 1011.2 hPa | - | - | - | - |
| 1777589398 | 25° C | 61% | 1010.8 hPa | - | - | - | - |
| 1777588198 | 24.44° C | 66% | 1010.7 hPa | - | - | - | - |
| 1777586998 | 24.44° C | 63% | 1010.7 hPa | - | - | - | - |
| 1777585798 | 25° C | 63% | 1010.4 hPa | - | - | - | - |
| 1777584599 | 24.44° C | 64% | 1010.2 hPa | - | - | - | - |
| 1777583399 | 25° C | 61% | 1010.2 hPa | - | - | - | - |
| 1777582198 | 25° C | 63% | 1010.1 hPa | - | - | - | - |
| 1777580998 | 25° C | 64% | 1010.2 hPa | - | - | - | - |
| 1777579799 | 24.44° C | 64% | 1010 hPa | - | - | - | - |
| 1777578599 | 25° C | 64% | 1010 hPa | - | - | - | - |
| 1777577398 | 25° C | 61% | 1010 hPa | - | - | - | - |
| 1777576198 | 25° C | 61% | 1009.9 hPa | - | - | - | - |
| 1777574999 | 25° C | 60% | 1009.8 hPa | - | - | - | - |
| 1777573798 | 25° C | 62% | 1010 hPa | - | - | - | - |
| 1777572598 | 25° C | 61% | 1010 hPa | - | - | - | - |
| 1777571398 | 25° C | 63% | 1010.1 hPa | - | - | - | - |
| 1777570199 | 24.44° C | 62% | 1010.3 hPa | - | - | - | - |
| 1777568998 | 25° C | 59% | 1010.3 hPa | - | - | - | - |
| 1777567798 | 25° C | 62% | 1010.4 hPa | - | - | - | - |
| 1777566598 | 25° C | 62% | 1010.3 hPa | - | - | - | - |
* Rain since midnight (hover to see other rain measurements)
** Current wind speed in m/s (hover to see current wind gust speed)